Regional Weather Roundup
Issued by NWS

Home | Current Version | Previous Version | Graphics & Text | Print | Product List | Glossary On
Versions: 1 2 3 4 5 6 7 8 9 10 11 12 13 14 15 16 17 18 19 20 21 22 23 24 25 26 27 28 29 30 31 32 33 34 35 36 37 38 39 40 41 42 43 44 45 46 47 48 49 50
000
ASUS43 KLOT 141606
RWRIL

ILLINOIS REGIONAL WEATHER ROUNDUP
NATIONAL WEATHER SERVICE CHICAGO/ROMEOVILLE IL
1100 AM CDT MON JUL 14 2014

NOTE: "FAIR" INDICATES FEW OR NO CLOUDS BELOW 12,000 FEET WITH NO
SIGNIFICANT WEATHER AND/OR OBSTRUCTIONS TO VISIBILITY.

* THESE STATIONS ARE NOT UNDER NWS QUALITY CONTROL. THEY ALSO MAY NOT
  REPORT WEATHER SUCH AS PRECIPITATION OR FOG.

ILZ001-002-007-009-015-016-024-141700-
NORTHWEST ILLINOIS

CITY           SKY/WX    TMP DP  RH WIND       PRES   REMARKS
MOLINE         PTSUNNY   78  51  38 NW12      29.90R
STERLING*      MOSUNNY   77  59  53 N14       29.88S
SAVANNA*       SUNNY     77  49  37 NW10      29.88S
$$

ILZ003-004-008-010-011-017-018-141700-
NORTH CENTRAL ILLINOIS

CITY           SKY/WX    TMP DP  RH WIND       PRES   REMARKS
ROCKFORD       MOSUNNY   74  57  55 VRB5      29.89S
FREEPORT*      SUNNY     71  55  56 NW7       29.90F
ROCHELLE*      MOSUNNY   73  63  70 NW10      29.88S
DE KALB*       CLOUDY    69  61  74 CALM      29.88S
PERU*          PTSUNNY   76  67  74 W9        29.87S
$$

ILZ005-006-012>014-019>023-141700-
NORTHEAST ILLINOIS

CITY           SKY/WX    TMP DP  RH WIND       PRES   REMARKS
CHICAGO-OHARE  PTSUNNY   70  59  68 NE5       29.86F
CHICAGO-MIDWAY PTSUNNY   75  62  64 N5        29.86S
AURORA         PTSUNNY   75  64  68 SW3       29.86F
LANSING*       PTSUNNY   77  62  59 SW12      29.86F
JOLIET*        MOSUNNY   76  62  61 SW5       29.86F
WAUKEGAN       PTSUNNY   70  59  68 S8        29.86S
DUPAGE AIRPORT CLOUDY    71  60  68 NE3       29.87S
KANKAKEE*      MOSUNNY   78  66  65 S13       29.87F HX  80
WHEELING       PTSUNNY   70  61  73 CALM      29.88F
MORRIS*        MOSUNNY   77  67  72 SW6       29.85F
ROMEOVILLE*    PTSUNNY   76  60  58 SW9       29.85F
NORTHERLY ISL    N/A     65  58  78 N12         N/A
$$

LMZ740>746-141700-
SOUTHERN LAKE MICHIGAN

STATION/POSITION SKY/WX   TEMP    WIND        PRES    VSBY  WAVE
                          AIR SEA DIR/SP/G                  HT/PER
                          (F)     (DEG/KT/KT) (MB)    (MI)  (FT/S)
SOUTHERN BUOY              64 63  190/  4/  6 1011.4R         0
WAUKEGAN HARBOR            67     200/ 14/ 16 1012.5S
HARRISON CRIB              63      10/ 12/ 19   N/A
BURNHAM HARBOR             66      10/ 10/ 15   N/A
CALUMET HARBOR             75     180/  9/ 12 1011.8F
BURNS HARBOR               73     230/  4/  7 1012.5R
MICHIGAN CITY              70     360/  6/  7   N/A
$$

ILZ025>027-034>036-040-047-049-050-058-095>099-141700-
WEST-CENTRAL ILLINOIS

CITY           SKY/WX    TMP DP  RH WIND       PRES   REMARKS
QUINCY         LGT RAIN  74  67  78 NW9       29.94R
GALESBURG*     CLOUDY    75  60  58 NW10      29.91S
MACOMB*        CLOUDY    72  72 100 W13       29.94R
JACKSONVILLE*  MOSUNNY   83  73  69 W14       29.92S HX  89
PITTSFIELD*    MOSUNNY   82  71  68 W9        29.94S HX  86
$$

ILZ028>032-037-038-041>044-048-051>054-059>061-141700-
CENTRAL ILLINOIS

CITY           SKY/WX    TMP DP  RH WIND       PRES   REMARKS
PONTIAC        SUNNY     82  73  74 SW12      29.86F HX  88
BLOOMINGTON    PTSUNNY   80  70  71 SW15      29.89F HX  83
DECATUR        MOSUNNY   82  72  71 SW14G21   29.90F HX  87
PEORIA         PTSUNNY   80  66  62 VRB7      29.87F HX  82
LACON*         PTSUNNY   77  66  69 W9        29.86S
LINCOLN*       MOSUNNY   85  72  64 SW9       29.85F HX  91
SPRINGFIELD    MOSUNNY   84  72  67 W12       29.90F HX  89
TAYLORVILLE    SUNNY     81  72  74 SW12      29.91F HX  84
$$

ILZ033-039-045-046-055>057-062-063-141700-
EAST-CENTRAL ILLINOIS

CITY           SKY/WX    TMP DP  RH WIND       PRES   REMARKS
CHAMPAIGN      PTSUNNY   81  71  71 SW12      29.91F HX  85
RANTOUL*       MOSUNNY   78  69  73 SW8       29.91F HX  81
MATTOON        MOSUNNY   81  69  67 SW7       29.92S HX  84
PARIS*         MOSUNNY   81  72  73 S8        29.92S HX  85
$$

ILZ079-100>102-141700-
SOUTHWEST ILLINOIS

CITY           SKY/WX    TMP DP  RH WIND       PRES   REMARKS
ALTON          SUNNY     82  75  78 W5        29.94F HX  89
BELLEVILLE     PTSUNNY   82  75  78 VRB6      29.93S HX  89
CAHOKIA*       SUNNY     82  74  76 SW6       29.93F HX  88
SPARTA*        CLOUDY    75  72  88 CALM      29.96S
$$

ILZ064>066-069>071-074>076-080>082-084>086-088>090-092>094-141700-
SOUTH-CENTRAL ILLINOIS

CITY           SKY/WX    TMP DP  RH WIND       PRES   REMARKS
CARBONDALE     CLOUDY    77  71  82 CALM      29.95S
CAIRO*         CLOUDY    82  73  73 W8        29.95F HX  87
MARION         CLOUDY    77  73  88 W8        29.96S
MT. VERNON     CLOUDY    73  68  83 W5        29.96S
CENTRALIA*     CLOUDY    83  73  72 W3        29.95R HX  89
SALEM*         PTSUNNY   81  75  82 SW7       29.95R HX  86
METROPOLIS*    CLOUDY    79  69  71 W8        29.95S HX  81
$$

ILZ067-068-072-073-078-083-087-091-141700-
SOUTHEAST ILLINOIS

CITY           SKY/WX    TMP DP  RH WIND       PRES   REMARKS
FLORA*         SUNNY     76  72  86 S5        29.94S
HARRISBURG*    PTSUNNY   78  74  85 W7        29.96S HX  81
ROBINSON*      CLOUDY    78  74  88 W6        29.94S HX  80
CARMI*         CLOUDY    80  75  84 W7        29.94S HX  84
$$

ABBREVIATIONS USED IN REMARKS
   TC - TEMPERATURE IN CELSIUS
  WCI - WIND CHILL INDEX
   HX - HEAT INDEX
  VSB - VISIBILITY
$$



USA.gov is the U.S. government's official web portal to all federal, state and local government web resources and services.